CW5763 Weather Reports


time (UTC)temp
C
wind
direction
speed
KPH
gust
KPH
rain 1hr
cm
rain 24hr
cm
rain mn
cm
humidity
%
barometer
mb
20260506032005 10 19 0.0 4.8 0.00 0.00 0.00 78 1011.5
20260506030005 11 141 0.0 3.2 0.00 0.00 0.00 81 1011.6
20260506024005 11 45 1.6 4.8 0.00 0.00 0.00 80 1011.5
20260506023005 11 123 0.0 1.6 0.00 0.00 0.00 79 1011.6
20260506022005 11 123 0.0 3.2 0.00 0.00 0.00 79 1011.5
20260506021005 11 138 0.0 3.2 0.00 0.00 0.00 78 1011.5
20260506020005 11 169 0.0 1.6 0.00 0.00 0.00 78 1011.6
20260506015005 11 163 0.0 1.6 0.00 0.00 0.00 77 1011.6
20260506014005 11 163 1.6 8.0 0.00 0.00 0.00 77 1011.6
20260506013005 11 151 0.0 3.2 0.00 0.00 0.00 77 1011.6
20260506012005 11 151 0.0 4.8 0.00 0.00 0.00 77 1011.7
20260506010005 11 162 1.6 4.8 0.00 0.00 0.00 75 1011.7
20260506005006 11 171 0.0 4.8 0.00 0.00 0.00 75 1011.6
20260506004005 11 171 1.6 4.8 0.00 0.00 0.00 74 1011.8
20260506003005 11 168 0.0 9.7 0.00 0.00 0.00 74 1011.7
20260506002005 11 138 0.0 8.0 0.00 0.00 0.00 75 1011.8
20260506001005 11 151 3.2 8.0 0.00 0.00 0.00 74 1011.7
20260506000005 12 135 3.2 12.9 0.00 0.00 0.00 75 1011.7
20260505235005 12 125 1.6 11.3 0.00 0.00 0.00 77 1011.7
20260505234005 12 132 3.2 14.5 0.00 0.00 0.00 77 1011.7
20260505233005 12 123 1.6 14.5 0.00 0.00 0.00 79 1011.6
20260505232005 12 9 0.0 4.8 0.00 0.00 0.00 79 1011.6
20260505231005 12 6 1.6 4.8 0.00 0.00 0.00 78 1011.5
20260505225005 12 5 1.6 4.8 0.00 0.00 0.00 78 1011.4
20260505224005 12 5 1.6 3.2 0.00 0.00 0.00 78 1011.4
20260505223005 12 9 1.6 4.8 0.00 0.00 0.00 78 1011.5
20260505221005 12 358 0.0 4.8 0.00 0.00 0.00 78 1011.3
20260505214005 12 331 1.6 8.0 0.00 0.00 0.00 77 1011.4
20260505213005 12 328 1.6 4.8 0.00 0.00 0.00 77 1011.5
20260505212005 12 332 1.6 4.8 0.00 0.00 0.00 77 1011.4
20260505210005 13 350 0.0 3.2 0.00 0.00 0.00 77 1011.3
20260505205006 13 350 1.6 3.2 0.00 0.00 0.00 76 1011.3
20260505204005 13 348 0.0 4.8 0.00 0.00 0.00 77 1011.3
20260505203005 13 355 0.0 1.6 0.00 0.00 0.00 76 1011.3
20260505202005 13 355 0.0 4.8 0.00 0.00 0.00 75 1011.3
20260505201005 13 355 1.6 4.8 0.00 0.00 0.00 75 1011.3
20260505200005 13 355 0.0 3.2 0.00 0.00 0.00 75 1011.2
20260505195005 13 355 1.6 3.2 0.00 0.00 0.00 75 1011.1
20260505194005 13 355 1.6 3.2 0.00 0.00 0.00 75 1011.1
20260505193004 13 355 0.0 1.6 0.00 0.00 0.00 75 1011.0
20260505192005 14 355 0.0 3.2 0.00 0.00 0.00 74 1010.9
20260505190005 14 355 0.0 3.2 0.00 0.00 0.00 73 1010.8
20260505185004 14 355 0.0 3.2 0.00 0.00 0.00 73 1010.8
20260505184005 14 0 0.0 3.2 0.00 0.00 0.00 72 1010.7
20260505183005 14 0 0.0 3.2 0.00 0.00 0.00 71 1010.7
20260505182004 14 0 1.6 3.2 0.00 0.00 0.00 71 1010.7
20260505181005 14 0 0.0 3.2 0.00 0.00 0.00 71 1010.7
20260505174004 15 0 3.2 4.8 0.00 0.00 0.00 69 1010.8
20260505171004 15 0 0.0 3.2 0.00 0.00 0.00 69 1011.0
20260505165004 15 5 3.2 4.8 0.00 0.00 0.00 66 1011.1
20260505163007 16 347 1.6 4.8 0.00 0.00 0.00 66 1011.0
20260505162004 16 339 1.6 4.8 0.00 0.00 0.00 68 1011.0
20260505161004 16 321 1.6 8.0 0.00 0.00 0.00 66 1010.9
20260505153004 16 311 1.6 4.8 0.00 0.00 0.00 64 1011.1
20260505152004 16 310 3.2 8.0 0.00 0.00 0.00 64 1011.1
20260505151004 16 313 1.6 8.0 0.00 0.00 0.00 64 1011.1
20260505124004 15 25 4.8 11.3 0.00 0.00 0.00 68 1011.7
20260505123004 15 11 3.2 12.9 0.00 0.00 0.00 68 1011.8
20260505122004 15 27 3.2 9.7 0.00 0.00 0.00 68 1011.8
20260505121004 15 48 1.6 8.0 0.00 0.00 0.00 70 1011.7
20260505120006 15 71 3.2 8.0 0.00 0.00 0.00 68 1011.8
20260505114006 16 11 3.2 8.0 0.00 0.00 0.00 67 1011.7
20260505113006 16 5 1.6 8.0 0.00 0.00 0.00 67 1011.9
20260505112005 16 15 3.2 8.0 0.00 0.00 0.00 65 1011.8
20260505111006 16 13 4.8 9.7 0.00 0.00 0.00 65 1011.9
20260505102006 16 24 4.8 11.3 0.00 0.00 0.00 68 1012.1
20260505101006 16 13 3.2 11.3 0.00 0.00 0.00 72 1012.1
20260505100006 15 16 3.2 11.3 0.00 0.00 0.00 73 1012.0
20260505095006 15 12 4.8 8.0 0.00 0.00 0.00 72 1012.2
20260505094006 15 15 3.2 12.9 0.00 0.00 0.00 73 1012.3
20260505093006 14 15 3.2 14.5 0.00 0.00 0.00 74 1012.3
20260505091007 14 1 3.2 9.7 0.00 0.00 0.00 76 1012.3
20260505090006 14 18 4.8 12.9 0.00 0.00 0.00 78 1012.4
20260505085006 13 350 1.6 9.7 0.00 0.00 0.00 82 1012.5
20260505084006 13 335 1.6 11.3 0.00 0.00 0.00 80 1012.6
20260505083006 13 0 3.2 12.9 0.00 0.00 0.00 81 1012.5
20260505082005 12 22 1.6 4.8 0.00 0.00 0.00 84 1012.6
20260505081006 12 26 1.6 4.8 0.00 0.00 0.00 87 1012.4
20260505074006 12 26 1.6 4.8 0.00 0.00 0.00 88 1012.5
20260505073006 12 26 1.6 4.8 0.00 0.00 0.00 88 1012.5
20260505071006 11 28 0.0 3.2 0.00 0.00 0.00 90 1012.6
20260505070007 11 28 0.0 3.2 0.00 0.00 0.00 90 1012.5
20260505065006 11 24 0.0 4.8 0.00 0.00 0.00 90 1012.5
20260505064006 11 24 1.6 4.8 0.00 0.00 0.00 90 1012.6
20260505063005 11 26 3.2 4.8 0.00 0.00 0.00 90 1012.7
20260505062006 11 36 3.2 4.8 0.00 0.00 0.00 90 1012.6
20260505061004 11 54 1.6 4.8 0.00 0.00 0.00 90 1012.6
20260505055006 11 136 1.6 3.2 0.00 0.00 0.00 91 1012.5
20260505054006 11 136 1.6 3.2 0.00 0.00 0.00 91 1012.5
20260505053005 11 136 0.0 3.2 0.00 0.00 0.00 91 1012.4
20260505052005 11 136 0.0 3.2 0.00 0.00 0.00 91 1012.5
20260505051006 11 136 0.0 3.2 0.00 0.00 0.00 92 1012.4
20260505041005 12 136 0.0 1.6 0.00 0.00 0.00 93 1012.5
20260505035005 12 136 0.0 1.6 0.00 0.00 0.00 93 1012.5
20260505034005 12 136 0.0 1.6 0.00 0.00 0.00 93 1012.6
20260505033005 12 136 0.0 0.0 0.00 0.00 0.00 93 1012.8